Tracking 19562 objects as of 24-Mar-2019
HD Live streaming from Space Station
objects crossing your sky now

FLOCK 2K 43

Track FLOCK 2K 43 now!
10-day predictions
FLOCK 2K 43 is classified as:


NORAD ID: 42874
Int'l Code: 2017-042BB
Perigee: 457.9 km
Apogee: 475.1 km
Inclination: 97.0 °
Period: 93.8 minutes
Semi major axis: 6837 km
RCS: Unknown
Launch date: July 14, 2017
Source: United States (US)
Launch site: TYURATAM MISSILE AND SPACE COMPLEX (TTMTR)
aabbcc
Your satellite tracking list
Your tracking list is empty




NASA's NSSDC Master Catalog

Two Line Element Set (TLE):
1 42874U 17042BB  19082.91970732 +.00001304 +00000-0 +39785-4 0  9991
2 42874 096.9513 328.6228 0012612 167.2002 192.9565 15.35529445094510
Source of the keplerian elements: AFSPC